�������l�o���
Date,Time,MP-1(��Sv/h),MP-2(��Sv/h),MP-3(��Sv/h),MP-4(��Sv/h),MP-5(��Sv/h),MP-6(��Sv/h),MP-7(��Sv/h),MP-8(��Sv/h),����,����(m/s),���J
2020/07/20,00:00,0.656,0.938,0.591,1.129,0.806,0.393,0.670,0.629,���k��,0.9,��
2020/07/20,00:10,0.656,0.938,0.592,1.128,0.806,0.392,0.669,0.629,�k�k��,1.9,��
2020/07/20,00:20,0.654,0.938,0.592,1.128,0.804,0.392,0.669,0.630,�k�k��,2.5,��
2020/07/20,00:30,0.656,0.938,0.592,1.131,0.805,0.392,0.669,0.629,�k�k��,3.9,��
2020/07/20,00:40,0.655,0.936,0.590,1.130,0.805,0.391,0.667,0.627,�k,4.5,��
2020/07/20,00:50,0.655,0.937,0.591,1.129,0.805,0.392,0.667,0.629,�k,5.0,��
2020/07/20,01:00,0.652,0.936,0.591,1.128,0.805,0.390,0.667,0.628,�k,3.3,��
2020/07/20,01:10,0.652,0.935,0.590,1.129,0.804,0.390,0.667,0.628,�k,5.0,��
2020/07/20,01:20,0.651,0.935,0.589,1.129,0.805,0.390,0.667,0.627,�k,3.7,��
2020/07/20,01:30,0.653,0.933,0.591,1.128,0.804,0.390,0.667,0.627,�k,4.0,��
2020/07/20,01:40,0.653,0.936,0.591,1.129,0.803,0.390,0.668,0.628,�k�k��,4.1,��
2020/07/20,01:50,0.652,0.932,0.590,1.128,0.804,0.390,0.667,0.629,�k,4.3,��
2020/07/20,02:00,0.651,0.936,0.590,1.126,0.805,0.390,0.668,0.629,�k�k��,4.2,��
2020/07/20,02:10,0.653,0.935,0.592,1.126,0.806,0.389,0.668,0.627,�k�k��,5.3,��
2020/07/20,02:20,0.652,0.933,0.589,1.131,0.804,0.391,0.666,0.628,�k�k��,3.8,��
2020/07/20,02:30,0.653,0.936,0.591,1.130,0.806,0.390,0.666,0.627,�k,4.6,��
2020/07/20,02:40,0.654,0.933,0.591,1.129,0.804,0.389,0.666,0.629,�k,4.3,��
2020/07/20,02:50,0.651,0.935,0.589,1.130,0.804,0.390,0.668,0.629,�k,4.9,��
2020/07/20,03:00,0.652,0.935,0.591,1.128,0.804,0.390,0.666,0.628,�k,5.4,��
2020/07/20,03:10,0.654,0.938,0.589,1.128,0.804,0.389,0.666,0.627,�k,6.3,��
2020/07/20,03:20,0.651,0.934,0.588,1.127,0.802,0.389,0.666,0.628,�k�k��,6.9,��
2020/07/20,03:30,0.652,0.934,0.589,1.126,0.805,0.387,0.666,0.628,�k�k��,7.1,��
2020/07/20,03:40,0.650,0.933,0.588,1.128,0.804,0.389,0.666,0.628,�k�k��,7.4,��
2020/07/20,03:50,0.650,0.932,0.589,1.127,0.805,0.388,0.664,0.627,�k�k��,8.1,��
2020/07/20,04:00,0.652,0.934,0.587,1.129,0.805,0.389,0.667,0.627,�k�k��,6.9,��
2020/07/20,04:10,0.651,0.935,0.591,1.125,0.804,0.389,0.665,0.628,�k,5.9,��
2020/07/20,04:20,0.652,0.933,0.589,1.127,0.804,0.389,0.663,0.626,�k,6.1,��
2020/07/20,04:30,0.651,0.933,0.590,1.129,0.804,0.389,0.665,0.627,�k,5.6,��
2020/07/20,04:40,0.651,0.933,0.587,1.125,0.801,0.389,0.665,0.627,�k�k��,4.6,��
2020/07/20,04:50,0.653,0.932,0.587,1.127,0.804,0.388,0.664,0.627,�k,4.3,��
2020/07/20,05:00,0.650,0.932,0.588,1.128,0.802,0.388,0.665,0.626,�k,5.1,��
2020/07/20,05:10,0.651,0.933,0.589,1.128,0.804,0.387,0.664,0.628,�k,5.3,��
2020/07/20,05:20,0.647,0.934,0.588,1.126,0.803,0.386,0.664,0.627,�k,4.7,��
2020/07/20,05:30,0.649,0.934,0.588,1.127,0.803,0.389,0.665,0.628,�k,4.0,��
2020/07/20,05:40,0.651,0.933,0.587,1.126,0.803,0.386,0.663,0.627,�k,4.3,��
2020/07/20,05:50,0.651,0.932,0.588,1.126,0.803,0.388,0.665,0.627,�k,3.8,��
2020/07/20,06:00,0.651,0.935,0.589,1.127,0.803,0.387,0.663,0.626,�k,4.0,��
2020/07/20,06:10,0.649,0.934,0.587,1.126,0.803,0.387,0.664,0.630,�k,3.3,��
2020/07/20,06:20,0.648,0.932,0.586,1.127,0.804,0.386,0.664,0.625,�k,3.9,��
2020/07/20,06:30,0.650,0.934,0.585,1.128,0.802,0.387,0.663,0.628,�k,3.3,��
2020/07/20,06:40,0.650,0.933,0.588,1.128,0.801,0.387,0.663,0.626,�k�k��,2.8,��
2020/07/20,06:50,0.649,0.933,0.585,1.126,0.798,0.387,0.665,0.626,�k�k��,2.8,��
2020/07/20,07:00,0.649,0.932,0.585,1.127,0.801,0.386,0.664,0.626,�k�k��,2.8,��
2020/07/20,07:10,0.651,0.933,0.583,1.127,0.802,0.386,0.665,0.627,�k�k��,2.9,��
2020/07/20,07:20,0.651,0.932,0.583,1.126,0.802,0.388,0.663,0.626,�k,3.1,��
2020/07/20,07:30,0.649,0.933,0.585,1.126,0.801,0.388,0.663,0.628,�k�k��,3.4,��
2020/07/20,07:40,0.651,0.932,0.586,1.126,0.803,0.386,0.664,0.626,�k,2.6,��
2020/07/20,07:50,0.651,0.934,0.586,1.127,0.800,0.387,0.664,0.627,�k�k��,2.8,��
2020/07/20,08:00,0.651,0.932,0.585,1.126,0.804,0.386,0.662,0.627,�k�k��,3.0,��
2020/07/20,08:10,0.651,0.933,0.585,1.127,0.804,0.386,0.663,0.625,�k�k��,3.3,��
2020/07/20,08:20,0.650,0.932,0.585,1.125,0.803,0.389,0.663,0.624,�k�k��,3.4,��
2020/07/20,08:30,0.651,0.932,0.585,1.127,0.803,0.386,0.664,0.626,�k�k��,3.0,��
2020/07/20,08:40,0.652,0.931,0.584,1.125,0.801,0.387,0.666,0.625,�k�k��,3.1,��
2020/07/20,08:50,0.650,0.933,0.583,1.125,0.802,0.387,0.664,0.626,�k�k��,2.6,��
2020/07/20,09:00,0.653,0.927,0.583,1.128,0.802,0.387,0.663,0.624,�k�k��,2.9,��
2020/07/20,09:10,0.653,0.929,0.583,1.126,0.802,0.388,0.665,0.629,�k�k��,3.0,��
2020/07/20,09:20,0.651,0.932,0.582,1.127,0.803,0.387,0.666,0.626,�k�k��,3.0,��
2020/07/20,09:30,0.653,0.931,0.583,1.127,0.802,0.387,0.666,0.626,�k�k��,3.0,��
2020/07/20,09:40,0.652,0.927,0.584,1.127,0.803,0.388,0.666,0.626,�k�k��,3.1,��
2020/07/20,09:50,0.654,0.930,0.585,1.127,0.802,0.388,0.666,0.625,�k�k��,3.0,��
2020/07/20,10:00,0.653,0.932,0.585,1.125,0.805,0.388,0.665,0.626,�k,2.3,��
2020/07/20,10:10,0.653,0.929,0.585,1.127,0.806,0.388,0.665,0.628,�k,2.3,��
2020/07/20,10:20,0.652,0.931,0.586,1.126,0.806,0.389,0.666,0.625,�k�k��,2.6,��
2020/07/20,10:30,0.654,0.931,0.586,1.126,0.802,0.389,0.666,0.626,�k�k��,3.1,��
2020/07/20,10:40,0.655,0.929,0.587,1.125,0.802,0.387,0.666,0.627,�k�k��,3.6,��
2020/07/20,10:50,0.652,0.932,0.586,1.124,0.804,0.389,0.666,0.626,�k��,3.2,��
2020/07/20,11:00,0.654,0.931,0.587,1.122,0.804,0.390,0.664,0.626,�k��,3.1,��
2020/07/20,11:10,0.655,0.935,0.587,1.123,0.805,0.389,0.667,0.625,�k��,3.8,��
2020/07/20,11:20,0.654,0.931,0.588,1.126,0.804,0.389,0.667,0.625,�k��,3.3,��
2020/07/20,11:30,0.653,0.933,0.590,1.125,0.805,0.389,0.668,0.626,�k��,2.9,��
2020/07/20,11:40,0.655,0.934,0.587,1.125,0.806,0.390,0.666,0.626,�k��,3.6,��
2020/07/20,11:50,0.655,0.936,0.587,1.128,0.807,0.389,0.668,0.628,�k��,2.6,��
2020/07/20,12:00,0.655,0.937,0.587,1.124,0.806,0.389,0.668,0.626,�k��,2.6,��
2020/07/20,12:10,0.655,0.936,0.587,1.126,0.805,0.389,0.669,0.627,�k��,2.0,��
2020/07/20,12:20,0.655,0.936,0.585,1.127,0.805,0.389,0.670,0.627,�k�k��,2.3,��
2020/07/20,12:30,0.654,0.935,0.588,1.125,0.805,0.390,0.666,0.626,�k��,2.0,��
2020/07/20,12:40,0.654,0.939,0.586,1.125,0.805,0.388,0.666,0.625,�k��,2.6,��
2020/07/20,12:50,0.654,0.937,0.588,1.126,0.806,0.390,0.669,0.626,�k��,2.6,��
2020/07/20,13:00,0.655,0.935,0.586,1.123,0.805,0.389,0.667,0.627,�k��,2.6,��
2020/07/20,13:10,0.656,0.935,0.583,1.126,0.806,0.390,0.668,0.626,���k��,2.8,��
2020/07/20,13:20,0.654,0.935,0.582,1.125,0.805,0.390,0.668,0.627,�k��,2.9,��
2020/07/20,13:30,0.654,0.933,0.582,1.126,0.807,0.390,0.668,0.628,���k��,3.1,��
2020/07/20,13:40,0.656,0.939,0.582,1.128,0.807,0.389,0.669,0.627,�k��,3.4,��
2020/07/20,13:50,0.655,0.940,0.584,1.129,0.804,0.392,0.668,0.627,�k��,3.2,��
2020/07/20,14:00,0.657,0.941,0.589,1.127,0.807,0.390,0.667,0.626,�k��,3.0,��
2020/07/20,14:10,0.653,0.937,0.588,1.127,0.809,0.390,0.669,0.626,�k��,2.5,��
2020/07/20,14:20,0.657,0.936,0.587,1.128,0.806,0.392,0.669,0.628,���k��,2.0,��
2020/07/20,14:30,0.654,0.939,0.587,1.126,0.806,0.389,0.669,0.628,�k��,1.5,��
2020/07/20,14:40,0.656,0.937,0.587,1.128,0.806,0.393,0.669,0.628,��,2.0,��
2020/07/20,14:50,0.655,0.936,0.586,1.127,0.806,0.391,0.668,0.629,�k��,2.0,��
2020/07/20,15:00,0.657,0.936,0.587,1.125,0.807,0.392,0.669,0.626,��,1.5,��
2020/07/20,15:10,0.654,0.937,0.588,1.128,0.807,0.391,0.668,0.628,��,1.7,��
2020/07/20,15:20,0.654,0.940,0.588,1.127,0.805,0.391,0.670,0.628,���k��,1.5,��
2020/07/20,15:30,0.656,0.937,0.588,1.128,0.808,0.393,0.668,0.627,���쓌,1.4,��
2020/07/20,15:40,0.657,0.940,0.588,1.129,0.808,0.390,0.670,0.628,���쓌,1.1,��
2020/07/20,15:50,0.656,0.938,0.588,1.131,0.807,0.391,0.670,0.627,���쓌,1.5,��
2020/07/20,16:00,0.657,0.935,0.588,1.132,0.808,0.391,0.667,0.630,���쓌,1.9,��
2020/07/20,16:10,0.656,0.935,0.588,1.130,0.806,0.390,0.669,0.627,�쓌,1.7,��
2020/07/20,16:20,0.657,0.941,0.587,1.130,0.806,0.391,0.668,0.627,�쓌,1.5,��
2020/07/20,16:30,0.655,0.942,0.590,1.131,0.808,0.394,0.669,0.627,���쓌,1.5,��
2020/07/20,16:40,0.657,0.939,0.589,1.133,0.808,0.390,0.667,0.626,��,1.7,��
2020/07/20,16:50,0.655,0.937,0.590,1.132,0.808,0.390,0.669,0.627,�쓌,2.3,��
2020/07/20,17:00,0.655,0.938,0.587,1.130,0.807,0.390,0.669,0.628,���k��,2.2,��
2020/07/20,17:10,0.655,0.940,0.589,1.134,0.808,0.391,0.668,0.627,���k��,2.0,��
2020/07/20,17:20,0.657,0.938,0.588,1.132,0.807,0.391,0.668,0.629,���k��,2.0,��
2020/07/20,17:30,0.654,0.941,0.589,1.134,0.808,0.390,0.668,0.628,���k��,2.0,��
2020/07/20,17:40,0.656,0.941,0.589,1.132,0.808,0.391,0.668,0.628,���k��,1.7,��
2020/07/20,17:50,0.655,0.941,0.589,1.135,0.807,0.390,0.668,0.630,���k��,2.3,��
2020/07/20,18:00,0.654,0.943,0.590,1.131,0.807,0.391,0.669,0.628,���k��,1.5,��
2020/07/20,18:10,0.655,0.941,0.590,1.133,0.808,0.391,0.669,0.628,-,CALM,��
2020/07/20,18:20,0.655,0.942,0.590,1.132,0.808,0.391,0.669,0.629,�k,0.6,��
2020/07/20,18:30,0.656,0.943,0.590,1.133,0.806,0.391,0.670,0.630,-,CALM,��
2020/07/20,18:40,0.657,0.943,0.590,1.134,0.807,0.391,0.670,0.630,-,CALM,��
2020/07/20,18:50,0.657,0.945,0.592,1.135,0.807,0.392,0.667,0.629,��쐼,0.6,��
2020/07/20,19:00,0.657,0.944,0.590,1.133,0.808,0.392,0.669,0.629,�k��,0.9,��
2020/07/20,19:10,0.658,0.943,0.590,1.132,0.810,0.391,0.670,0.629,���k��,1.4,��
2020/07/20,19:20,0.657,0.943,0.589,1.133,0.810,0.393,0.669,0.630,�k��,1.5,��
2020/07/20,19:30,0.658,0.944,0.591,1.131,0.811,0.392,0.666,0.631,��,1.2,��
2020/07/20,19:40,0.655,0.943,0.590,1.132,0.810,0.392,0.669,0.630,���쓌,1.2,��
2020/07/20,19:50,0.655,0.942,0.590,1.135,0.810,0.391,0.669,0.629,-,CALM,��
2020/07/20,20:00,0.659,0.947,0.591,1.134,0.810,0.391,0.669,0.630,-,CALM,��
2020/07/20,20:10,0.657,0.946,0.590,1.134,0.808,0.392,0.669,0.629,-,CALM,��
2020/07/20,20:20,0.656,0.945,0.589,1.134,0.812,0.392,0.669,0.630,��쐼,0.6,��
2020/07/20,20:30,0.657,0.944,0.590,1.133,0.812,0.390,0.667,0.631,��쓌,0.6,��
2020/07/20,20:40,0.658,0.945,0.591,1.136,0.812,0.393,0.669,0.631,���쓌,1.1,��
2020/07/20,20:50,0.657,0.942,0.591,1.133,0.811,0.392,0.670,0.630,-,CALM,��
2020/07/20,21:00,0.657,0.943,0.592,1.132,0.811,0.393,0.670,0.631,���쓌,0.6,��
2020/07/20,21:10,0.657,0.943,0.590,1.132,0.812,0.393,0.670,0.630,�쓌,0.9,��
2020/07/20,21:20,0.656,0.945,0.591,1.133,0.811,0.392,0.670,0.631,���쓌,0.9,��
2020/07/20,21:30,0.657,0.943,0.589,1.133,0.811,0.392,0.669,0.629,��,0.9,��
2020/07/20,21:40,0.658,0.944,0.591,1.131,0.811,0.392,0.669,0.630,��,0.9,��
2020/07/20,21:50,0.657,0.943,0.591,1.132,0.812,0.392,0.669,0.629,���쓌,1.5,��
2020/07/20,22:00,0.657,0.943,0.591,1.134,0.811,0.391,0.667,0.630,���쓌,1.1,��
2020/07/20,22:10,0.657,0.943,0.591,1.133,0.809,0.393,0.669,0.629,�쓌,0.9,��
2020/07/20,22:20,0.656,0.945,0.591,1.132,0.810,0.393,0.668,0.629,��쓌,0.6,��
2020/07/20,22:30,0.657,0.945,0.591,1.133,0.812,0.392,0.668,0.628,��,0.6,��
2020/07/20,22:40,0.657,0.944,0.591,1.134,0.811,0.392,0.667,0.630,�쓌,0.9,��
2020/07/20,22:50,0.658,0.944,0.592,1.135,0.809,0.390,0.669,0.629,�쓌,0.9,��
2020/07/20,23:00,0.657,0.944,0.589,1.133,0.809,0.393,0.670,0.629,���쓌,1.2,��
2020/07/20,23:10,0.657,0.945,0.592,1.133,0.809,0.391,0.670,0.630,���쓌,0.9,��
2020/07/20,23:20,0.657,0.945,0.589,1.133,0.810,0.392,0.669,0.629,��,1.2,��
2020/07/20,23:30,0.658,0.941,0.591,1.134,0.811,0.392,0.671,0.630,���쓌,1.4,��
2020/07/20,23:40,0.659,0.945,0.591,1.133,0.810,0.392,0.668,0.631,���쓌,1.7,��
2020/07/20,23:50,0.658,0.943,0.592,1.134,0.809,0.392,0.670,0.629,�쓌,1.5,��
